Regional Weather Roundup
Issued by NWS

Home | Current Version | Previous Version | Text Only | Print | Product List | Glossary On
Versions: 1 2 3 4 5 6 7 8 9 10 11 12 13 14 15 16 17 18 19 20 21 22 23 24 25 26 27 28 29 30 31 32 33 34 35 36 37 38 39 40 41 42 43 44 45 46 47 48 49 50
000
ASUS43 KDTX 280210
RWRMI
MICHIGAN HOURLY REGIONAL WEATHER ROUNDUP
NATIONAL WEATHER SERVICE DETROIT/PONTIAC MI
1000 PM EDT MON APR 27 2015

NOTE: "FAIR" INDICATES FEW OR NO CLOUDS BELOW 12,000 FEET WITH NO
SIGNIFICANT WEATHER AND/OR OBSTRUCTION TO VISIBILITY.

MIZ047>049-052>055-059>063-066>070-074>076-081>083-280300-
SOUTHEAST LOWER MICHIGAN

CITY           SKY/WX    TMP DP  RH WIND       PRES   REMARKS
ADRIAN         PTCLDY    45  33  63 N5        30.09R
ALMA           CLOUDY    49  37  61 CALM      30.09R
ANN ARBOR      CLEAR     41  32  70 CALM      30.08R
BAD AXE        CLEAR     39  32  75 N3        30.10S
DETROIT CITY   CLEAR     46  34  62 N5        30.09R
DETROIT        MOCLDY    48  34  58 N3        30.09R
FLINT          CLEAR     46  31  55 CALM      30.09S
GROSSE ILE     CLEAR     46  36  66 N5        30.07R
HILLSDALE      CLEAR     45  33  63 CALM      30.08S
HOWELL         CLEAR     44  31  60 CALM      30.08R

CITY           SKY/WX    TMP DP  RH WIND       PRES   REMARKS
JACKSON        CLEAR     41  33  73 CALM      30.09R
LAMBERTVILLE   CLOUDY    46  34  61 N3        30.08S
LANSING        PTCLDY    44  33  65 CALM      30.09R
LAPEER         NOT AVBL
MASON          MOCLDY    42  34  72 CALM      30.08S
MONROE         PTCLDY    45  34  65 CALM      30.07R
PONTIAC        CLEAR     45  32  60 CALM      30.07R
PORT HOPE        N/A     41  34  76 N6        30.08R
PORT HURON     CLEAR     41  34  75 N5        30.09S
TRI CITIES     CLOUDY    48  34  58 NE10      30.10R
YPSILANTI      PTCLDY    48  33  56 N5        30.09R
$$
MIZ043>046-050>051-056>058-064>065-071>073-077>080-280300-
SOUTHWEST LOWER MICHIGAN

CITY           SKY/WX    TMP DP  RH WIND       PRES   REMARKS
BATTLE CREEK   PTCLDY    45  34  65 CALM      30.09R
BENTON HARBOR  CLEAR     39  33  79 E3        30.10S
BIG RAPIDS     CLEAR     48  33  57 N6        30.09R
COLDWATER      MOCLDY    41  32  71 CALM      30.08F
HOLLAND        CLEAR     45  35  68 NW5       30.10R
GRAND RAPIDS   MOCLDY    48  35  60 SW6       30.08S
KALAMAZOO      CLEAR     45  34  65 NW5       30.09S
MARSHALL       MOCLDY    42  34  72 CALM      30.08S
MUSKEGON       PTCLDY    45  36  70 CALM      30.09R
$$
MIZ016>042-280300-
NORTHERN LOWER MICHIGAN

CITY           SKY/WX    TMP DP  RH WIND       PRES   REMARKS
ALPENA         CLOUDY    48  34  58 NW10      30.11R
BEAVER ISLAND  CLOUDY    45  33  63 N7        30.15R
BELLAIRE       CLOUDY    48  33  57 CALM      30.13R
CADILLAC       CLOUDY    44  32  63 CALM      30.10S
CHARLEVOIX     CLOUDY    42  34  73 NW6       30.16S
FRANKFORT      CLEAR     46  30  54 CALM      30.13R
GAYLORD        CLOUDY    46  33  60 CALM      30.10R
GRAYLING       CLOUDY    46  32  57 NW3       30.11R
HARBOR SPRINGS CLOUDY    44  34  68 CALM      30.12R
HOUGHTON LAKE  CLOUDY    47  33  58 N7        30.10R
MANISTEE       CLEAR     46  30  53 NE5       30.12R
OSCODA         PTCLDY    43  33  69 NE6       30.10R
PELLSTON       CLOUDY    47  34  60 N6        30.13R
TRAVERSE CITY  MOCLDY    46  33  60 E3        30.12R
$$
MIZ007>008-015-280300-
EASTERN UPPER MICHIGAN

CITY           SKY/WX    TMP DP  RH WIND       PRES   REMARKS
KINROSS        CLOUDY    41  36  81 N7        30.13R
MACKINAC ISLAN CLOUDY    44  33  67 N7        30.13R
NEWBERRY       CLOUDY    39  33  78 NW5       30.15R
S. S. MARIE    CLOUDY    43  33  68 NW3       30.13R
$$
MIZ004>006-011>014-085-280300-
CENTRAL UPPER MICHIGAN

CITY           SKY/WX    TMP DP  RH WIND       PRES   REMARKS
MANISTIQUE     MOCLDY    39  32  74 N7        30.16R
ESCANABA       CLEAR     45  30  57 N6        30.16R
MENOMINEE      CLEAR     45  32  61 E10       30.15S
SAWYER-GWINN   CLEAR     39  30  70 NE5       30.16R
$$
MIZ001>003-009>011-084-280300-
WESTERN UPPER MICHIGAN

CITY           SKY/WX    TMP DP  RH WIND       PRES   REMARKS
IRON MOUNTAIN  CLEAR     50  29  44 N6        30.13R
HOUGHTON       CLEAR     37  29  72 NW5       30.15S
COPPER HARBOR    N/A     36  31  82 CALM      30.16S
IRONWOOD       CLEAR     46  36  66 E3        30.13S
$$

ABBREVIATIONS USED IN REMARKS
   TC - TEMPERATURE IN CELSIUS
  WCI - WIND CHILL INDEX
   HX - HEAT INDEX
  VSB - VISIBILITY



USA.gov is the U.S. government's official web portal to all federal, state and local government web resources and services.